Project,Study,Ord_Occ,Event_Num,Date_Time_UTC,Date_Time_PST,Lat_Dec,Lon_Dec,Sta_ID,Line,Sta,Depth,Pressure,Temp0,Temp1,Salt0,CorrSalt0,Salt1,CorrSalt1,O2ml/L,AveCorrO2ml/L,StaCorrO2ml/L,FluorV,AveEstChl,StaEstChl,ISUSV,AveEstNO3,StaEstNO3,SigThetaTS0,SigThetaTS1,BAT,XMiss,SPAR,PAR,BTL_Depth,BTL_Temp,BTL_Salt,BTL_O2ml/L,BTL_Chl,BTL_Pha,BTL_NO3
CalCOFI,0701JD,076,,31-Jan-2007 7:40:57 PM,31-Jan-2007 11:40:57 AM,36.76700,-122.09268,066.7 050.0,066.7,050.0,1027.000,1037.213,3.8080,3.8088,34.4594,34.4581,34.4580,34.4581,0.44438,0.51,0.50,0.0249,,,1.9148,45.72,43.363,27.3836,27.3823,0.5530,87.0873,3.9384e+00,9.9990e+03,1027,3.81 ,34.460,  .48,.00,.04,42.9
CalCOFI,0701JD,076,,31-Jan-2007 7:41:02 PM,31-Jan-2007 11:41:02 AM,36.76700,-122.09268,066.7 050.0,066.7,050.0,1026.000,1036.200,3.8086,3.8094,34.4593,34.4580,34.4578,34.4579,0.44419,0.51,0.50,0.0252,,,1.9158,45.75,43.393,27.3834,27.3822,0.5509,87.1332,3.9831e+00,9.9990e+03,,,,,,,
CalCOFI,0701JD,076,,31-Jan-2007 7:41:08 PM,31-Jan-2007 11:41:08 AM,36.76700,-122.09268,066.7 050.0,066.7,050.0,1025.000,1035.188,3.8097,3.8106,34.4593,34.4580,34.4578,34.4579,0.44241,0.51,0.50,0.0253,,,1.9139,45.69,43.337,27.3833,27.3820,0.5571,86.9991,3.8985e+00,9.9990e+03,,,,,,,
CalCOFI,0701JD,076,,31-Jan-2007 7:41:10 PM,31-Jan-2007 11:41:10 AM,36.76700,-122.09268,066.7 050.0,066.7,050.0,1024.000,1034.176,3.8172,3.8188,34.4588,34.4575,34.4570,34.4571,0.44185,0.50,0.50,0.0251,,,1.9057,45.45,43.093,27.3821,27.3805,0.5544,87.0584,4.2719e+00,9.9990e+03,,,,,,,
CalCOFI,0701JD,076,,31-Jan-2007 7:41:10 PM,31-Jan-2007 11:41:10 AM,36.76700,-122.09268,066.7 050.0,066.7,050.0,1023.000,1033.163,3.8224,3.8233,34.4583,34.4570,34.4567,34.4568,0.44103,0.50,0.50,0.0252,,,1.9170,45.78,43.429,27.3812,27.3798,0.5470,87.2185,4.1403e+00,9.9990e+03,,,,,,,
CalCOFI,0701JD,076,,31-Jan-2007 7:41:11 PM,31-Jan-2007 11:41:11 AM,36.76700,-122.09268,066.7 050.0,066.7,050.0,1022.000,1032.151,3.8288,3.8296,34.4576,34.4563,34.4562,34.4563,0.44092,0.50,0.50,0.0251,,,1.9267,46.07,43.717,27.3800,27.3788,0.5561,87.0202,3.6125e+00,9.9990e+03,,,,,,,
CalCOFI,0701JD,076,,31-Jan-2007 7:41:12 PM,31-Jan-2007 11:41:12 AM,36.76700,-122.09268,066.7 050.0,066.7,050.0,1021.000,1031.138,3.8327,3.8333,34.4573,34.4560,34.4557,34.4558,0.43911,0.50,0.49,0.0252,,,1.9233,45.97,43.616,27.3794,27.3780,0.5663,86.7989,4.2275e+00,9.9990e+03,,,,,,,
CalCOFI,0701JD,076,,31-Jan-2007 7:41:13 PM,31-Jan-2007 11:41:13 AM,36.76700,-122.09268,066.7 050.0,066.7,050.0,1020.000,1030.126,3.8347,3.8354,34.4571,34.4558,34.4556,34.4557,0.43928,0.50,0.49,0.0250,,,1.9128,45.66,43.304,27.3790,27.3777,0.5675,86.7724,3.9971e+00,9.9990e+03,,,,,,,
CalCOFI,0701JD,076,,31-Jan-2007 7:41:14 PM,31-Jan-2007 11:41:14 AM,36.76700,-122.09268,066.7 050.0,066.7,050.0,1019.000,1029.113,3.8366,3.8378,34.4570,34.4557,34.4553,34.4554,0.43784,0.50,0.49,0.0247,,,1.9087,45.54,43.182,27.3787,27.3772,0.5626,86.8789,3.9505e+00,9.9990e+03,,,,,,,
CalCOFI,0701JD,076,,31-Jan-2007 7:41:16 PM,31-Jan-2007 11:41:16 AM,36.76700,-122.09268,066.7 050.0,066.7,050.0,1018.000,1028.101,3.8407,3.8429,34.4567,34.4554,34.4549,34.4550,0.43673,0.50,0.49,0.0249,,,1.9048,45.42,43.066,27.3781,27.3764,0.5607,86.9207,4.1172e+00,9.9990e+03,,,,,,,
CalCOFI,0701JD,076,,31-Jan-2007 7:41:18 PM,31-Jan-2007 11:41:18 AM,36.76700,-122.09268,066.7 050.0,066.7,050.0,1017.000,1027.089,3.8481,3.8503,34.4555,34.4542,34.4543,34.4544,0.43523,0.50,0.49,0.0248,,,1.9212,45.90,43.553,27.3763,27.3752,0.5552,87.0409,3.8310e+00,9.9990e+03,,,,,,,
CalCOFI,0701JD,076,,31-Jan-2007 7:41:19 PM,31-Jan-2007 11:41:19 AM,36.76700,-122.09268,066.7 050.0,066.7,050.0,1016.000,1026.076,3.8425,3.8455,34.4562,34.4549,34.4549,34.4550,0.43514,0.50,0.49,0.0251,,,1.9404,46.47,44.124,27.3775,27.3761,0.5461,87.2392,3.7514e+00,9.9990e+03,,,,,,,
CalCOFI,0701JD,076,,31-Jan-2007 7:41:19 PM,31-Jan-2007 11:41:19 AM,36.76700,-122.09268,066.7 050.0,066.7,050.0,1015.000,1025.064,3.8476,3.8491,34.4560,34.4547,34.4546,34.4547,0.43380,0.49,0.49,0.0252,,,1.9300,46.16,43.815,27.3768,27.3755,0.5474,87.2105,4.1473e+00,9.9990e+03,,,,,,,
CalCOFI,0701JD,076,,31-Jan-2007 7:41:20 PM,31-Jan-2007 11:41:20 AM,36.76700,-122.09268,066.7 050.0,066.7,050.0,1014.000,1024.051,3.8552,3.8547,34.4551,34.4538,34.4539,34.4540,0.43331,0.49,0.49,0.0247,,,1.9135,45.68,43.325,27.3753,27.3744,0.5455,87.2520,4.0396e+00,9.9990e+03,,,,,,,
CalCOFI,0701JD,076,,31-Jan-2007 7:41:21 PM,31-Jan-2007 11:41:21 AM,36.76700,-122.09268,066.7 050.0,066.7,050.0,1013.000,1023.039,3.8520,3.8519,34.4552,34.4539,34.4542,34.4543,0.43289,0.49,0.49,0.0250,,,1.9127,45.66,43.301,27.3757,27.3749,0.5475,87.2086,4.0532e+00,9.9990e+03,,,,,,,
CalCOFI,0701JD,076,,31-Jan-2007 7:41:22 PM,31-Jan-2007 11:41:22 AM,36.76700,-122.09268,066.7 050.0,066.7,050.0,1012.000,1022.027,3.8509,3.8495,34.4553,34.4540,34.4546,34.4547,0.43308,0.49,0.49,0.0250,,,1.9133,45.67,43.319,27.3758,27.3754,0.5509,87.1327,3.3574e+00,9.9990e+03,,,,,,,
CalCOFI,0701JD,076,,31-Jan-2007 7:41:23 PM,31-Jan-2007 11:41:23 AM,36.76700,-122.09268,066.7 050.0,066.7,050.0,1011.000,1021.014,3.8492,3.8502,34.4556,34.4543,34.4543,34.4544,0.43245,0.49,0.49,0.0254,,,1.9137,45.68,43.331,27.3762,27.3751,0.5497,87.1598,3.6586e+00,9.9990e+03,,,,,,,
CalCOFI,0701JD,076,,31-Jan-2007 7:41:24 PM,31-Jan-2007 11:41:24 AM,36.76700,-122.09268,066.7 050.0,066.7,050.0,1010.000,1020.002,3.8518,3.8528,34.4554,34.4541,34.4538,34.4539,0.43209,0.49,0.49,0.0253,,,1.8987,45.24,42.885,27.3759,27.3745,0.5461,87.2382,3.8332e+00,9.9990e+03,,,,,,,
CalCOFI,0701JD,076,,31-Jan-2007 7:41:25 PM,31-Jan-2007 11:41:25 AM,36.76700,-122.09268,066.7 050.0,066.7,050.0,1009.000,1018.990,3.8552,3.8559,34.4549,34.4536,34.4535,34.4536,0.43100,0.49,0.48,0.0255,,,1.9046,45.42,43.060,27.3751,27.3739,0.5440,87.2832,3.9473e+00,9.9990e+03,,,,,,,
CalCOFI,0701JD,076,,31-Jan-2007 7:41:27 PM,31-Jan-2007 11:41:27 AM,36.76700,-122.09268,066.7 050.0,066.7,050.0,1008.000,1017.977,3.8569,3.8575,34.4547,34.4534,34.4534,34.4535,0.43034,0.49,0.48,0.0253,,,1.9021,45.34,42.986,27.3748,27.3737,0.5379,87.4170,3.7343e+00,9.9990e+03,,,,,,,
CalCOFI,0701JD,076,,31-Jan-2007 7:41:28 PM,31-Jan-2007 11:41:28 AM,36.76700,-122.09268,066.7 050.0,066.7,050.0,1007.000,1016.965,3.8570,3.8575,34.4549,34.4536,34.4534,34.4535,0.42934,0.49,0.48,0.0248,,,1.8935,45.09,42.731,27.3749,27.3736,0.5386,87.4029,3.5393e+00,9.9990e+03,,,,,,,
CalCOFI,0701JD,076,,31-Jan-2007 7:41:29 PM,31-Jan-2007 11:41:29 AM,36.76700,-122.09268,066.7 050.0,066.7,050.0,1006.000,1015.953,3.8680,3.8688,34.4538,34.4525,34.4523,34.4524,0.42814,0.49,0.48,0.0252,,,1.8897,44.98,42.618,27.3729,27.3717,0.5451,87.2593,4.0003e+00,9.9990e+03,,,,,,,
CalCOFI,0701JD,076,,31-Jan-2007 7:41:30 PM,31-Jan-2007 11:41:30 AM,36.76700,-122.09268,066.7 050.0,066.7,050.0,1005.000,1014.940,3.8729,3.8737,34.4535,34.4522,34.4521,34.4522,0.42667,0.49,0.48,0.0254,,,1.8992,45.26,42.900,27.3722,27.3710,0.5557,87.0293,3.8397e+00,9.9990e+03,,,,,,,
CalCOFI,0701JD,076,,31-Jan-2007 7:41:31 PM,31-Jan-2007 11:41:31 AM,36.76700,-122.09268,066.7 050.0,066.7,050.0,1004.000,1013.928,3.8735,3.8743,34.4533,34.4520,34.4520,34.4521,0.42586,0.49,0.48,0.0253,,,1.9169,45.78,43.426,27.3719,27.3708,0.5562,87.0198,4.4163e+00,9.9990e+03,,,,,,,
CalCOFI,0701JD,076,,31-Jan-2007 7:41:32 PM,31-Jan-2007 11:41:32 AM,36.76700,-122.09268,066.7 050.0,066.7,050.0,1003.000,1012.916,3.8733,3.8740,34.4533,34.4520,34.4520,34.4521,0.42579,0.48,0.48,0.0251,,,1.9222,45.93,43.583,27.3720,27.3708,0.5561,87.0213,4.0245e+00,9.9990e+03,,,,,,,
CalCOFI,0701JD,076,,31-Jan-2007 7:41:33 PM,31-Jan-2007 11:41:33 AM,36.76700,-122.09268,066.7 050.0,066.7,050.0,1002.000,1011.903,3.8746,3.8754,34.4533,34.4520,34.4521,34.4522,0.42536,0.48,0.48,0.0252,,,1.9059,45.46,43.099,27.3718,27.3708,0.5534,87.0784,4.0317e+00,9.9990e+03,,,,,,,
CalCOFI,0701JD,076,,31-Jan-2007 7:41:34 PM,31-Jan-2007 11:41:34 AM,36.76700,-122.09268,066.7 050.0,066.7,050.0,1001.000,1010.891,3.8760,3.8767,34.4531,34.4518,34.4518,34.4519,0.42550,0.48,0.48,0.0255,,,1.8993,45.26,42.903,27.3715,27.3704,0.5476,87.2046,3.8386e+00,9.9990e+03,,,,,,,
CalCOFI,0701JD,076,,31-Jan-2007 7:41:35 PM,31-Jan-2007 11:41:35 AM,36.76700,-122.09268,066.7 050.0,066.7,050.0,1000.000,1009.879,3.8767,3.8771,34.4528,34.4515,34.4517,34.4518,0.42452,0.48,0.48,0.0249,,,1.8839,44.81,42.445,27.3712,27.3703,0.5482,87.1922,3.9091e+00,9.9990e+03,,,,,,,
CalCOFI,0701JD,076,,31-Jan-2007 7:41:36 PM,31-Jan-2007 11:41:36 AM,36.76700,-122.09268,066.7 050.0,066.7,050.0,999.000,1008.866,3.8764,3.8768,34.4528,34.4515,34.4517,34.4518,0.42421,0.48,0.48,0.0250,,,1.8789,44.66,42.297,27.3713,27.3703,0.5509,87.1335,4.0537e+00,9.9990e+03,,,,,,,
CalCOFI,0701JD,076,,31-Jan-2007 7:41:37 PM,31-Jan-2007 11:41:37 AM,36.76700,-122.09268,066.7 050.0,066.7,050.0,998.000,1007.854,3.8777,3.8780,34.4528,34.4515,34.4517,34.4518,0.42217,0.48,0.47,0.0252,,,1.8789,44.66,42.297,27.3711,27.3702,0.5444,87.2761,4.1250e+00,9.9990e+03,,,,,,,
CalCOFI,0701JD,076,,31-Jan-2007 7:41:39 PM,31-Jan-2007 11:41:39 AM,36.76700,-122.09268,066.7 050.0,066.7,050.0,997.000,1006.842,3.8822,3.8832,34.4523,34.4510,34.4511,34.4512,0.42250,0.48,0.47,0.0248,,,1.8955,45.15,42.790,27.3702,27.3692,0.5409,87.3513,3.8682e+00,9.9990e+03,,,,,,,
CalCOFI,0701JD,076,,31-Jan-2007 7:41:41 PM,31-Jan-2007 11:41:41 AM,36.76700,-122.09268,066.7 050.0,066.7,050.0,996.000,1005.829,3.8823,3.8832,34.4523,34.4510,34.4512,34.4513,0.42155,0.48,0.47,0.0250,,,1.8747,44.54,42.172,27.3702,27.3692,0.5444,87.2763,4.1209e+00,9.9990e+03,,,,,,,
CalCOFI,0701JD,076,,31-Jan-2007 7:41:42 PM,31-Jan-2007 11:41:42 AM,36.76700,-122.09268,066.7 050.0,066.7,050.0,995.000,1004.817,3.8852,3.8866,34.4522,34.4509,34.4508,34.4509,0.42135,0.48,0.47,0.0253,,,1.8754,44.56,42.193,27.3698,27.3686,0.5374,87.4281,4.3763e+00,9.9990e+03,,,,,,,
CalCOFI,0701JD,076,,31-Jan-2007 7:41:42 PM,31-Jan-2007 11:41:42 AM,36.76700,-122.09268,066.7 050.0,066.7,050.0,994.000,1003.805,3.8891,3.8898,34.4517,34.4504,34.4504,34.4505,0.42067,0.48,0.47,0.0257,,,1.8853,44.85,42.487,27.3690,27.3679,0.5336,87.5118,4.2661e+00,9.9990e+03,,,,,,,
CalCOFI,0701JD,076,,31-Jan-2007 7:41:43 PM,31-Jan-2007 11:41:43 AM,36.76700,-122.09268,066.7 050.0,066.7,050.0,993.000,1002.792,3.8906,3.8915,34.4516,34.4503,34.4504,34.4505,0.42016,0.48,0.47,0.0255,,,1.8950,45.14,42.775,27.3688,27.3677,0.5341,87.5018,3.9592e+00,9.9990e+03,,,,,,,
CalCOFI,0701JD,076,,31-Jan-2007 7:41:44 PM,31-Jan-2007 11:41:44 AM,36.76700,-122.09268,066.7 050.0,066.7,050.0,992.000,1001.780,3.8928,3.8936,34.4514,34.4501,34.4502,34.4503,0.41928,0.48,0.47,0.0255,,,1.9007,45.30,42.944,27.3684,27.3674,0.5324,87.5375,4.0641e+00,9.9990e+03,,,,,,,
CalCOFI,0701JD,076,,31-Jan-2007 7:41:44 PM,31-Jan-2007 11:41:44 AM,36.76700,-122.09268,066.7 050.0,066.7,050.0,991.000,1000.768,3.8941,3.8946,34.4512,34.4499,34.4502,34.4503,0.42013,0.48,0.47,0.0252,,,1.8897,44.98,42.618,27.3681,27.3673,0.5334,87.5168,3.8420e+00,9.9990e+03,,,,,,,
CalCOFI,0701JD,076,,31-Jan-2007 7:41:45 PM,31-Jan-2007 11:41:45 AM,36.76700,-122.09268,066.7 050.0,066.7,050.0,990.000,999.756,3.8964,3.8971,34.4510,34.4497,34.4499,34.4500,0.41838,0.48,0.47,0.0250,,,1.8702,44.41,42.039,27.3677,27.3667,0.5316,87.5553,3.8397e+00,9.9990e+03,,,,,,,
CalCOFI,0701JD,076,,31-Jan-2007 7:41:47 PM,31-Jan-2007 11:41:47 AM,36.76700,-122.09268,066.7 050.0,066.7,050.0,989.000,998.743,3.8988,3.9010,34.4509,34.4496,34.4495,34.4496,0.41826,0.48,0.47,0.0251,,,1.8669,44.31,41.941,27.3673,27.3660,0.5347,87.4871,3.5180e+00,9.9990e+03,,,,,,,
CalCOFI,0701JD,076,,31-Jan-2007 7:41:48 PM,31-Jan-2007 11:41:48 AM,36.76700,-122.09268,066.7 050.0,066.7,050.0,988.000,997.731,3.9070,3.9094,34.4501,34.4488,34.4485,34.4486,0.41624,0.47,0.47,0.0251,,,1.9291,46.14,43.788,27.3659,27.3644,0.5328,87.5291,3.9659e+00,9.9990e+03,,,,,,,
CalCOFI,0701JD,076,,31-Jan-2007 7:41:49 PM,31-Jan-2007 11:41:49 AM,36.76700,-122.09268,066.7 050.0,066.7,050.0,987.000,996.719,3.9125,3.9134,34.4495,34.4482,34.4483,34.4484,0.41407,0.47,0.46,0.0250,,,1.9383,46.41,44.061,27.3649,27.3638,0.5264,87.6699,3.7757e+00,9.9990e+03,,,,,,,
CalCOFI,0701JD,076,,31-Jan-2007 7:41:51 PM,31-Jan-2007 11:41:51 AM,36.76700,-122.09268,066.7 050.0,066.7,050.0,986.000,995.707,3.9148,3.9154,34.4493,34.4480,34.4482,34.4483,-9.990e-29,,0.46,0.0249,,,1.8919,45.04,42.683,27.3645,27.3635,0.5297,87.5973,4.1672e+00,9.9990e+03,,,,,,,
CalCOFI,0701JD,076,,31-Jan-2007 7:41:52 PM,31-Jan-2007 11:41:52 AM,36.76700,-122.09268,066.7 050.0,066.7,050.0,985.000,994.694,3.9163,3.9170,34.4491,34.4478,34.4480,34.4481,-9.990e-29,,0.46,0.0248,,,1.9210,45.90,43.547,27.3641,27.3632,0.5272,87.6511,3.9004e+00,9.9990e+03,,,,,,,
CalCOFI,0701JD,076,,31-Jan-2007 7:41:53 PM,31-Jan-2007 11:41:53 AM,36.76700,-122.09268,066.7 050.0,066.7,050.0,984.000,993.682,3.9183,3.9184,34.4491,34.4478,34.4479,34.4480,0.41283,0.47,0.46,0.0251,,,1.9266,46.06,43.714,27.3639,27.3630,0.5270,87.6553,3.9168e+00,9.9990e+03,,,,,,,
CalCOFI,0701JD,076,,31-Jan-2007 7:41:54 PM,31-Jan-2007 11:41:54 AM,36.76700,-122.09268,066.7 050.0,066.7,050.0,983.000,992.670,3.9237,3.9250,34.4488,34.4475,34.4474,34.4475,0.41052,0.47,0.46,0.0251,,,1.9265,46.06,43.711,27.3631,27.3619,0.5245,87.7110,3.7559e+00,9.9990e+03,,,,,,,
CalCOFI,0701JD,076,,31-Jan-2007 7:41:55 PM,31-Jan-2007 11:41:55 AM,36.76700,-122.09268,066.7 050.0,066.7,050.0,982.000,991.658,3.9386,3.9408,34.4475,34.4462,34.4459,34.4460,0.40928,0.46,0.46,0.0248,,,1.8752,44.55,42.187,27.3606,27.3591,0.5293,87.6061,3.8383e+00,9.9990e+03,,,,,,,
CalCOFI,0701JD,076,,31-Jan-2007 7:41:56 PM,31-Jan-2007 11:41:56 AM,36.76700,-122.09268,066.7 050.0,066.7,050.0,981.000,990.645,3.9507,3.9523,34.4463,34.4450,34.4449,34.4450,0.40785,0.46,0.46,0.0254,,,1.9023,45.35,42.992,27.3584,27.3572,0.5296,87.5999,3.9270e+00,9.9990e+03,,,,,,,
CalCOFI,0701JD,076,,31-Jan-2007 7:41:57 PM,31-Jan-2007 11:41:57 AM,36.76700,-122.09268,066.7 050.0,066.7,050.0,980.000,989.633,3.9632,3.9646,34.4452,34.4439,34.4439,34.4440,0.40609,0.46,0.45,0.0249,,,1.9045,45.41,43.057,27.3563,27.3551,0.5277,87.6410,3.6607e+00,9.9990e+03,,,,,,,
CalCOFI,0701JD,076,,31-Jan-2007 7:41:58 PM,31-Jan-2007 11:41:58 AM,36.76700,-122.09268,066.7 050.0,066.7,050.0,979.000,988.621,3.9672,3.9687,34.4449,34.4436,34.4435,34.4436,0.40482,0.46,0.45,0.0254,,,1.8879,44.93,42.564,27.3556,27.3543,0.5282,87.6294,3.9202e+00,9.9990e+03,,,,,,,
CalCOFI,0701JD,076,,31-Jan-2007 7:41:59 PM,31-Jan-2007 11:41:59 AM,36.76700,-122.09268,066.7 050.0,066.7,050.0,978.000,987.609,3.9693,3.9704,34.4446,34.4433,34.4435,34.4436,0.40317,0.46,0.45,0.0246,,,1.8901,44.99,42.630,27.3551,27.3541,0.5267,87.6621,3.7805e+00,9.9990e+03,,,,,,,
CalCOFI,0701JD,076,,31-Jan-2007 7:42:00 PM,31-Jan-2007 11:42:00 AM,36.76700,-122.09268,066.7 050.0,066.7,050.0,977.000,986.597,3.9712,3.9720,34.4443,34.4430,34.4432,34.4433,0.40118,0.45,0.45,0.0253,,,1.8982,45.23,42.870,27.3547,27.3538,0.5271,87.6543,4.2841e+00,9.9990e+03,,,,,,,
CalCOFI,0701JD,076,,31-Jan-2007 7:42:02 PM,31-Jan-2007 11:42:02 AM,36.76700,-122.09268,066.7 050.0,066.7,050.0,976.000,985.584,3.9739,3.9747,34.4440,34.4427,34.4430,34.4431,0.40078,0.45,0.45,0.0252,,,1.9006,45.30,42.941,27.3541,27.3533,0.5243,87.7156,3.9886e+00,9.9990e+03,,,,,,,
CalCOFI,0701JD,076,,31-Jan-2007 7:42:03 PM,31-Jan-2007 11:42:03 AM,36.76700,-122.09268,066.7 050.0,066.7,050.0,975.000,984.572,3.9752,3.9758,34.4437,34.4424,34.4429,34.4430,0.39979,0.45,0.45,0.0250,,,1.8947,45.13,42.766,27.3538,27.3531,0.5218,87.7689,3.7488e+00,9.9990e+03,,,,,,,
CalCOFI,0701JD,076,,31-Jan-2007 7:42:03 PM,31-Jan-2007 11:42:03 AM,36.76700,-122.09268,066.7 050.0,066.7,050.0,974.000,983.560,3.9757,3.9765,34.4437,34.4424,34.4427,34.4428,0.39930,0.45,0.45,0.0252,,,1.8877,44.92,42.558,27.3537,27.3529,0.5249,87.7013,4.2351e+00,9.9990e+03,,,,,,,
CalCOFI,0701JD,076,,31-Jan-2007 7:42:04 PM,31-Jan-2007 11:42:04 AM,36.76700,-122.09268,066.7 050.0,066.7,050.0,973.000,982.548,3.9756,3.9762,34.4436,34.4423,34.4428,34.4429,0.39871,0.45,0.44,0.0251,,,1.8828,44.78,42.413,27.3537,27.3530,0.5277,87.6405,4.1454e+00,9.9990e+03,,,,,,,
CalCOFI,0701JD,076,,31-Jan-2007 7:42:05 PM,31-Jan-2007 11:42:05 AM,36.76700,-122.09268,066.7 050.0,066.7,050.0,972.000,981.536,3.9754,3.9762,34.4436,34.4423,34.4427,34.4428,0.39865,0.45,0.44,0.0255,,,1.8876,44.92,42.555,27.3537,27.3529,0.5279,87.6361,4.2034e+00,9.9990e+03,,,,,,,
CalCOFI,0701JD,076,,31-Jan-2007 7:42:06 PM,31-Jan-2007 11:42:06 AM,36.76700,-122.09268,066.7 050.0,066.7,050.0,971.000,980.523,3.9757,3.9766,34.4437,34.4424,34.4427,34.4428,0.39792,0.45,0.44,0.0249,,,1.8912,45.02,42.662,27.3537,27.3528,0.5288,87.6172,4.3433e+00,9.9990e+03,,,,,,,
CalCOFI,0701JD,076,,31-Jan-2007 7:42:09 PM,31-Jan-2007 11:42:09 AM,36.76700,-122.09268,066.7 050.0,066.7,050.0,970.000,979.511,3.9749,3.9757,34.4436,34.4423,34.4427,34.4428,0.39772,0.45,0.44,0.0253,,,1.9144,45.71,43.351,27.3537,27.3529,0.5353,87.4744,3.8345e+00,9.9990e+03,,,,,,,
CalCOFI,0701JD,076,,31-Jan-2007 7:42:10 PM,31-Jan-2007 11:42:10 AM,36.76700,-122.09268,066.7 050.0,066.7,050.0,969.000,978.499,3.9767,3.9773,34.4435,34.4422,34.4424,34.4425,0.39684,0.45,0.44,0.0250,,,1.9011,45.31,42.956,27.3534,27.3525,0.5285,87.6243,3.5614e+00,9.9990e+03,,,,,,,
CalCOFI,0701JD,076,,31-Jan-2007 7:42:11 PM,31-Jan-2007 11:42:11 AM,36.76700,-122.09268,066.7 050.0,066.7,050.0,968.000,977.487,3.9798,3.9807,34.4431,34.4418,34.4421,34.4422,0.39572,0.45,0.44,0.0251,,,1.8935,45.09,42.731,27.3528,27.3519,0.5205,87.7994,4.3892e+00,9.9990e+03,,,,,,,
CalCOFI,0701JD,076,,31-Jan-2007 7:42:11 PM,31-Jan-2007 11:42:11 AM,36.76700,-122.09268,066.7 050.0,066.7,050.0,967.000,976.475,3.9856,3.9871,34.4428,34.4415,34.4414,34.4415,0.39505,0.45,0.44,0.0255,,,1.8885,44.94,42.582,27.3520,27.3507,0.5224,87.7571,4.3447e+00,9.9990e+03,,,,,,,
CalCOFI,0701JD,076,,31-Jan-2007 7:42:12 PM,31-Jan-2007 11:42:12 AM,36.76700,-122.09268,066.7 050.0,066.7,050.0,966.000,975.463,3.9898,3.9902,34.4423,34.4410,34.4413,34.4414,0.39507,0.45,0.44,0.0253,,,1.8796,44.68,42.318,27.3511,27.3503,0.5235,87.7329,4.0852e+00,9.9990e+03,,,,,,,
CalCOFI,0701JD,076,,31-Jan-2007 7:42:13 PM,31-Jan-2007 11:42:13 AM,36.76700,-122.09268,066.7 050.0,066.7,050.0,965.000,974.450,3.9943,3.9963,34.4420,34.4407,34.4407,34.4408,0.39390,0.45,0.44,0.0252,,,1.8800,44.70,42.330,27.3504,27.3492,0.5235,87.7330,3.6489e+00,9.9990e+03,,,,,,,
CalCOFI,0701JD,076,,31-Jan-2007 7:42:15 PM,31-Jan-2007 11:42:15 AM,36.76700,-122.09268,066.7 050.0,066.7,050.0,964.000,973.438,4.0007,4.0020,34.4413,34.4400,34.4402,34.4403,0.39246,0.44,0.44,0.0249,,,1.9197,45.86,43.509,27.3492,27.3482,0.5234,87.7342,4.1449e+00,9.9990e+03,,,,,,,
CalCOFI,0701JD,076,,31-Jan-2007 7:42:16 PM,31-Jan-2007 11:42:16 AM,36.76700,-122.09268,066.7 050.0,066.7,050.0,963.000,972.426,4.0021,4.0038,34.4411,34.4398,34.4401,34.4402,0.39109,0.44,0.44,0.0249,,,1.9449,46.60,44.257,27.3489,27.3479,0.5204,87.8012,4.1742e+00,9.9990e+03,,,,,,,
CalCOFI,0701JD,076,,31-Jan-2007 7:42:16 PM,31-Jan-2007 11:42:16 AM,36.76700,-122.09268,066.7 050.0,066.7,050.0,962.000,971.414,4.0036,4.0051,34.4410,34.4397,34.4401,34.4402,0.39085,0.44,0.44,0.0252,,,1.9519,46.81,44.465,27.3487,27.3478,0.5207,87.7939,4.1431e+00,9.9990e+03,,,,,,,
CalCOFI,0701JD,076,,31-Jan-2007 7:42:17 PM,31-Jan-2007 11:42:17 AM,36.76700,-122.09268,066.7 050.0,066.7,050.0,961.000,970.402,4.0073,4.0082,34.4408,34.4395,34.4399,34.4400,0.39157,0.44,0.44,0.0251,,,1.8926,45.07,42.704,27.3481,27.3473,0.5197,87.8171,3.9534e+00,9.9990e+03,,,,,,,
CalCOFI,0701JD,076,,31-Jan-2007 7:42:18 PM,31-Jan-2007 11:42:18 AM,36.76700,-122.09268,066.7 050.0,066.7,050.0,960.000,969.390,4.0104,4.0112,34.4404,34.4391,34.4395,34.4396,0.38972,0.44,0.43,0.0250,,,1.8784,44.65,42.282,27.3474,27.3467,0.5236,87.7307,3.8406e+00,9.9990e+03,,,,,,,
CalCOFI,0701JD,076,,31-Jan-2007 7:42:19 PM,31-Jan-2007 11:42:19 AM,36.76700,-122.09268,066.7 050.0,066.7,050.0,959.000,968.378,4.0122,4.0134,34.4403,34.4390,34.4394,34.4395,0.39013,0.44,0.43,0.0250,,,1.8878,44.92,42.561,27.3472,27.3463,0.5230,87.7438,4.0978e+00,9.9990e+03,,,,,,,
CalCOFI,0701JD,076,,31-Jan-2007 7:42:22 PM,31-Jan-2007 11:42:22 AM,36.76700,-122.09268,066.7 050.0,066.7,050.0,958.000,967.366,4.0092,4.0111,34.4405,34.4392,34.4396,34.4397,0.38790,0.44,0.43,0.0251,,,1.9038,45.39,43.037,27.3476,27.3467,0.5281,87.6319,4.0050e+00,9.9990e+03,,,,,,,
CalCOFI,0701JD,076,,31-Jan-2007 7:42:23 PM,31-Jan-2007 11:42:23 AM,36.76700,-122.09268,066.7 050.0,066.7,050.0,957.000,966.353,4.0146,4.0148,34.4400,34.4387,34.4391,34.4392,0.38719,0.44,0.43,0.0256,,,1.9003,45.29,42.933,27.3467,27.3459,0.5260,87.6766,3.8363e+00,9.9990e+03,,,,,,,
CalCOFI,0701JD,076,,31-Jan-2007 7:42:24 PM,31-Jan-2007 11:42:24 AM,36.76700,-122.09268,066.7 050.0,066.7,050.0,956.000,965.341,4.0188,4.0201,34.4399,34.4386,34.4387,34.4388,0.38475,0.43,0.43,0.0250,,,1.9051,45.43,43.075,27.3462,27.3451,0.5113,88.0016,4.3504e+00,9.9990e+03,,,,,,,
CalCOFI,0701JD,076,,31-Jan-2007 7:42:25 PM,31-Jan-2007 11:42:25 AM,36.76700,-122.09268,066.7 050.0,066.7,050.0,955.000,964.329,4.0296,4.0324,34.4391,34.4378,34.4376,34.4377,0.38358,0.43,0.43,0.0248,,,1.8992,45.26,42.900,27.3445,27.3429,0.4845,88.5917,4.1779e+00,9.9990e+03,,,,,,,
CalCOFI,0701JD,076,,31-Jan-2007 7:42:25 PM,31-Jan-2007 11:42:25 AM,36.76700,-122.09268,066.7 050.0,066.7,050.0,954.000,963.317,4.0455,4.0500,34.4381,34.4368,34.4361,34.4362,0.38139,0.43,0.42,0.0250,,,1.8814,44.74,42.371,27.3420,27.3399,0.4836,88.6114,4.3466e+00,9.9990e+03,,,,,,,
CalCOFI,0701JD,076,,31-Jan-2007 7:42:26 PM,31-Jan-2007 11:42:26 AM,36.76700,-122.09268,066.7 050.0,066.7,050.0,953.000,962.305,4.0557,4.0567,34.4368,34.4355,34.4358,34.4359,0.38042,0.43,0.42,0.0251,,,1.9010,45.31,42.953,27.3399,27.3390,0.4854,88.5719,4.2590e+00,9.9990e+03,,,,,,,
CalCOFI,0701JD,076,,31-Jan-2007 7:42:27 PM,31-Jan-2007 11:42:27 AM,36.76700,-122.09268,066.7 050.0,066.7,050.0,952.000,961.293,4.0573,4.0579,34.4366,34.4353,34.4357,34.4358,0.37811,0.43,0.42,0.0249,,,1.8868,44.89,42.532,27.3396,27.3388,0.4877,88.5213,3.7728e+00,9.9990e+03,,,,,,,
CalCOFI,0701JD,076,,31-Jan-2007 7:42:28 PM,31-Jan-2007 11:42:28 AM,36.76700,-122.09268,066.7 050.0,066.7,050.0,951.000,960.281,4.0581,4.0579,34.4365,34.4352,34.4358,34.4359,0.37644,0.42,0.42,0.0252,,,1.9058,45.45,43.096,27.3394,27.3389,0.4876,88.5227,3.9347e+00,9.9990e+03,,,,,,,
CalCOFI,0701JD,076,,31-Jan-2007 7:42:29 PM,31-Jan-2007 11:42:29 AM,36.76700,-122.09268,066.7 050.0,066.7,050.0,950.000,959.269,4.0630,4.0647,34.4361,34.4348,34.4350,34.4351,0.37623,0.42,0.42,0.0249,,,1.9174,45.79,43.440,27.3386,27.3376,0.4930,88.4040,4.1277e+00,9.9990e+03,,,,,,,
CalCOFI,0701JD,076,,31-Jan-2007 7:42:30 PM,31-Jan-2007 11:42:30 AM,36.76700,-122.09268,066.7 050.0,066.7,050.0,949.000,958.257,4.0652,4.0660,34.4359,34.4346,34.4351,34.4352,0.37585,0.42,0.42,0.0252,,,1.9201,45.87,43.521,27.3382,27.3375,0.4984,88.2863,3.9260e+00,9.9990e+03,,,,,,,
CalCOFI,0701JD,076,,31-Jan-2007 7:42:31 PM,31-Jan-2007 11:42:31 AM,36.76700,-122.09268,066.7 050.0,066.7,050.0,948.000,957.245,4.0674,4.0680,34.4355,34.4342,34.4347,34.4348,0.37420,0.42,0.41,0.0255,,,1.9036,45.39,43.031,27.3376,27.3369,0.5008,88.2331,4.2155e+00,9.9990e+03,,,,,,,
CalCOFI,0701JD,076,,31-Jan-2007 7:42:33 PM,31-Jan-2007 11:42:33 AM,36.76700,-122.09268,066.7 050.0,066.7,050.0,947.000,956.233,4.0704,4.0730,34.4352,34.4339,34.4342,34.4343,0.37328,0.42,0.41,0.0248,,,1.8857,44.86,42.499,27.3371,27.3360,0.4992,88.2671,4.0756e+00,9.9990e+03,,,,,,,
CalCOFI,0701JD,076,,31-Jan-2007 7:42:34 PM,31-Jan-2007 11:42:34 AM,36.76700,-122.09268,066.7 050.0,066.7,050.0,946.000,955.221,4.0773,4.0783,34.4346,34.4333,34.4338,34.4339,0.37260,0.42,0.41,0.0252,,,1.8983,45.23,42.873,27.3359,27.3351,0.4971,88.3128,3.8310e+00,9.9990e+03,,,,,,,
CalCOFI,0701JD,076,,31-Jan-2007 7:42:36 PM,31-Jan-2007 11:42:36 AM,36.76700,-122.09268,066.7 050.0,066.7,050.0,945.000,954.209,4.0772,4.0784,34.4345,34.4332,34.4337,34.4338,0.37120,0.42,0.41,0.0253,,,1.8869,44.90,42.535,27.3358,27.3351,0.4963,88.3306,3.9101e+00,9.9990e+03,,,,,,,